FLOCK 1C-4

Last updated on Wed Feb 14 2018 16:18:41 GMT+0000 (Coordinated Universal Time)

1 40031U 14033X 18045.08928589 -.00000284 00000-0 -24112-4 0 9996 2 40031 97.9210 322.4191 0013373 220.6989 139.3236 14.89044382198483

Satellite not in orbit

FLOCK 1C-4